Tracking 28518 objects as of 2-Mar-2024
HD Live streaming from Space Station
objects crossing your sky now

HOTBIRD 13F

Track HOTBIRD 13F now!
HOTBIRD 13F is classified as:


NORAD ID: 54048
Int'l Code: 2022-134A
Perigee: 35,779.4 km
Apogee: 35,807.9 km
Inclination: 0.1 °
Period: 1,436.1 minutes
Semi major axis: 42164 km
RCS: Unknown
Launch date: October 15, 2022
Source: ()
Launch site: AIR FORCE EASTERN TEST RANGE (AFETR)
Your satellite tracking list
Your tracking list is empty




NASA's NSSDC Master Catalog

Two Line Element Set (TLE):
1 54048U 22134A   24061.53382760  .00000098  00000-0  00000-0 0  9997
2 54048   0.0631 297.2808 0003375  15.4372  52.2515  1.00272098  5047
Source of the keplerian elements: AFSPC